モーリー-アタール彗星

C/2021 X1 ( Maury-Attard )

English version
Home page
Updated on September 11, 2022

---------------------------------------------------------------------

・ プロフィール

発見日 2021年12月2日
発見光度 19.0等
発見者 Alain Maury and Georges Attard (Maury, Attard, Parrott (MAP) survey project)

・ 写真集

・ 軌道要素

Epoch 2022 Aug. 9.0 TT = JDT 2459800.5
T 2023 May 27.45759 TT                                  Rudenko
q   3.2339247            (2000.0)            P               Q
z  +0.0000287      Peri.  334.61743     +0.82767427     +0.54871355
 +/-0.0000033      Node    10.58388     +0.55825241     -0.78347248
e   0.9999072      Incl.  140.12132     -0.05752872     +0.29169216
From 522 observations 2021 Oct. 22-2022 Sept. 8, mean residual 0".3.

・ 星図

・ 光度変化

        m1 = 7.0 + 5 logΔ + 10.0 log r

---------------------------------------------------------------------

軌道要素はM.P.E.C. 2022-R139に掲載されたものです。
星図はステラナビゲータ Ver.10 (アストロアーツ) で作成したものです。
光度グラフはComet for Windowsで作成したものです。

---------------------------------------------------------------------

Copyright(C) Seiichi Yoshida (comet@aerith.net). All rights reserved.